THOR ABLESTAR DEB, 150

Orbit data source: Space-Track

THOR ABLESTAR DEB, 150 is space debris in LEO originally from a launch on Thu, 29 Jun 1961 UTC launched from the Air Force Eastern Test Range (AFETR). Debris objects in space refer to the collection of defunct objects orbiting the Earth. Examples of debris include non-operational satellites, rocket bodies, and fragments generated from explosions, collisions, or faulty payload assembly.

Loading next visibility...
THOR ABLESTAR DEB details
Identifier
150, 1961-015AL
Orbit
LEO
Last TLE update15 hours ago
Origin
Flag of USUSAF SSD (US)
ManufacturerUnknown
MissionSpacecraft
Bus & MotorUnknown
MassUnknown
Launch date (UTC)
1961-06-29 (63 years ago)
Launch vehicleUnknown
Launch site
Air Force Eastern Test Range (AFETR)
Object type
Payload
Rocket body
Debris
Shape & HBRUnknown
Radar Cross SectionMedium (>0.1 m² and <1 m²)

Expand to show TLE details & history

TLE from 15 hours ago
0 THOR ABLESTAR DEB
1 00150U 61015AL  24355.90983685  .00001125  00000-0  10824-2 0  9992
2 00150  66.2464 162.8062 0063096 216.8362 142.8366 13.83111798 33348
Epoch: 2024-12-20T21:50Z
Definitive object data (Epoch: 2024-12-20T21:50:09.903Z)
Latitude-0.00003°
Longitude105.29634°
Altitude991.868 km
Speed7.338 km/s
True Right ascension10h 51m 13s
True Declination0° 00' 00"
Sunlit
Object was in daylight at TLE epoch
Visualization TLE readout
Latitude-64.41282°
Longitude-10.15686°
Altitude942.813 km
Speed7.397 km/s
Apparent Right ascension01h 13m 19s
Apparent Declination-55° 07' 39"
Sunlit
Object is in daylight
Visualization observer readout
Local Sidereal Time12:00:09
Azimuth212.57° SW
Elevation-70.528°
Doppler factor1
Orbital elements
Apogee altitude997.579 km
Perigee altitude905.087 km
Semi-major axis7,329.47 km
Eccentricity0.0063096
Inclination66.2464°
RAAN162.8062°
Arg. of periapsis216.8362°
True anomaly143.27064°
Mean anomaly142.8366°
Eccentric anomaly143.05389°
Mean motion3.45887 °/min
BSTAR0.0010824
Orbital period104.08 mins
Loading maneuver chart data...

THOR ABLESTAR DEB Visibility forecast

Observer location: undefined°, undefined

Span
Click to sort rows by Start time (UTC) header in descending order
Start Az.
Max El. time (UTC)
Max El. Az.
Max El.
End time (UTC)
End Az.
12 mins2024-12-21 13:35:16.633Z227.394° WSW2024-12-21 13:41:16.633Z305.773° NW39.584°2024-12-21 13:47:16.633Z21.637° NNE
4 mins2024-12-21 15:28:16.633Z310.664° NW2024-12-21 15:30:16.633Z330.363° NNW12.891°2024-12-21 15:32:16.633Z349.325° N
9 mins2024-12-21 20:57:16.633Z358.397° N2024-12-21 21:01:16.633Z53.533° ENE27.049°2024-12-21 21:06:16.633Z108.843° ESE
9 mins2024-12-21 22:44:16.633Z312.268° NW2024-12-21 22:48:16.633Z247.959° W36.841°2024-12-21 22:53:16.633Z177.446° S
10 mins2024-12-22 12:08:16.633Z176.518° S2024-12-22 12:13:16.633Z101.554° ESE35.069°2024-12-22 12:18:16.633Z44.145° NE
|